Content
SEND FEEDBACK

Daily
Averages
Monthly
Summary
Mexico

SAN MARTINIANO, QUINTANA ROO


Home > North America > Mexico > Quintana Roo
Elevation: 49 feet     Latitude: 20 47N     Longitude: 087 16W

WEATHER
 
SELECT A DAY
Number of Records: 196,490;   Date Range: 2/21/06 - 7/29/14
 
SHARE

PRINT THIS DATA

[ ← Previous Day ]
WEATHER ALMANAC - APRIL 17, 2013
[ Next Day → ]
[ °C ]   °F
Weather ElementAverageHighLow
Temperature76.9 °F87.8 °F (2:15 pm)66.2 °F (3:55 am)
Dewpoint45.6 °F69.8 °F (2:55 am) (7:00 pm)
Humidity55.9 %100 % (2:55 am)33 % (3:35 pm)
Barometer30.12 in30.17 in (12:35 am)30.06 in (4:35 pm)
Wind Speed6.8 mph15 mph (11:35 am)
Wind Gust19.6 mph (11:55 am)
Weather ElementAverage
Visibility9.8 mi
Wind DirectionENE (64.9 °)

Weather ElementTotal
Precipitation---
Cooling Degree Days12 (Base 65)
Growing Degree Days27 (Base 50)
Averaged from 68 records on April 17, 2013
WEATHER CONDITIONS BREAKOUT
WIND DIRECTION BREAKOUT
WEATHER BY HOUR - APRIL 17, 2013
[ °C ]   °F
Local TimeTemperatureDewpointHumidityBarometerVisibilityWind DirectionWind SpeedGust SpeedPrecipitationEventsConditions
12:35 AM73.4 °F66.2 °F78 %30.17 in10.0 miEast (80°)5.8 mphClear
12:55 AM73.4 °F66.2 °F78 %30.17 in10.0 miEast (90°)4.6 mphClear
1:15 AM73.4 °F66.2 °F78 %30.16 in10.0 miEast (90°)3.5 mphClear
1:35 AM71.6 °F66.2 °F83 %30.16 in10.0 miEast (100°)3.5 mphClear
1:55 AM71.6 °F66.2 °F83 %30.15 in10.0 miEast (80°)3.5 mphClear
2:15 AM71.6 °F68.0 °F88 %30.15 in10.0 miCalmClear
2:35 AM69.8 °F68.0 °F94 %30.15 in10.0 miCalmClear
2:55 AM69.8 °F69.8 °F100 %30.14 in10.0 miCalmClear
3:15 AM68.0 °F0.0 °F30.14 in10.0 miCalmClear
3:35 AM68.0 °F0.0 °F30.14 in10.0 miNNE (20°)3.5 mphClear
3:55 AM66.2 °F0.0 °F30.14 in10.0 miCalmClear
4:15 AM68.0 °F0.0 °F30.14 in10.0 miCalmClear
4:35 AM68.0 °F0.0 °F30.14 in10.0 miCalmClear
4:55 AM66.2 °F0.0 °F30.14 in7.0 miCalmClear
5:15 AM66.2 °F0.0 °F30.13 in10.0 miNE (50°)3.5 mphClear
5:35 AM66.2 °F0.0 °F30.13 in10.0 miNNE (30°)3.5 mphClear
5:55 AM66.2 °F0.0 °F30.13 in10.0 miCalmClear
6:15 AM66.2 °F0.0 °F30.14 in7.0 miNNE (20°)3.5 mphClear
6:35 AM66.2 °F0.0 °F30.15 in10.0 miNorth (360°)3.5 mphClear
6:55 AM66.2 °F0.0 °F30.16 in7.0 miNNE (30°)3.5 mphClear
7:15 AM66.2 °F0.0 °F30.17 in7.0 miNE (40°)3.5 mphClear
7:35 AM66.2 °F0.0 °F30.17 in7.0 miNNE (30°)4.6 mphClear
7:55 AM68.0 °F0.0 °F30.17 in10.0 miENE (60°)4.6 mphClear
8:15 AM68.0 °F0.0 °F30.17 in10.0 miENE (60°)5.8 mphClear
8:35 AM71.6 °F0.0 °F30.17 in10.0 miNE (50°)6.9 mphClear
8:55 AM73.4 °F0.0 °F30.17 in10.0 miENE (60°)6.9 mphClear
9:15 AM75.2 °F68.0 °F78 %30.17 in10.0 miENE (60°)8.1 mphClear
9:35 AM77.0 °F68.0 °F74 %30.17 in10.0 miEast (80°)5.8 mphClear
10:15 AM78.8 °F64.4 °F61 %30.17 in10.0 miNE (50°)11.5 mph17.3 mphClear
10:35 AM80.6 °F64.4 °F58 %30.16 in10.0 miNE (50°)10.4 mph16.1 mphClear
10:55 AM80.6 °F62.6 °F54 %30.16 in10.0 miENE (70°)12.7 mph18.4 mphClear
11:15 AM80.6 °F62.6 °F54 %30.16 in10.0 miENE (70°)10.4 mph16.1 mphClear
11:35 AM82.4 °F62.6 °F51 %30.15 in10.0 miENE (60°)15.0 mph18.4 mphClear
11:55 AM82.4 °F60.8 °F48 %30.15 in10.0 miENE (70°)11.5 mph19.6 mphClear
12:15 PM84.2 °F62.6 °F48 %30.14 in10.0 miENE (70°)13.8 mphMostly Cloudy
12:35 PM82.4 °F60.8 °F48 %30.14 in10.0 miENE (60°)8.1 mph18.4 mphMostly Cloudy
12:55 PM84.2 °F60.8 °F45 %30.13 in10.0 miENE (60°)11.5 mph17.3 mphScattered Clouds
1:15 PM86.0 °F59.0 °F40 %30.12 in10.0 miEast (80°)12.7 mph18.4 mphScattered Clouds
1:35 PM84.2 °F60.8 °F45 %30.11 in10.0 miENE (70°)13.8 mph17.3 mphMostly Cloudy
1:55 PM84.2 °F59.0 °F42 %30.10 in10.0 miNE (50°)8.1 mph19.6 mphMostly Cloudy
2:15 PM87.8 °F57.2 °F35 %30.10 in10.0 miENE (70°)11.5 mph19.6 mphScattered Clouds
2:35 PM86.0 °F57.2 °F37 %30.09 in10.0 miEast (90°)12.7 mph17.3 mphScattered Clouds
2:55 PM86.0 °F57.2 °F37 %30.09 in10.0 miEast (100°)4.6 mph19.6 mphScattered Clouds
3:15 PM86.0 °F57.2 °F37 %30.08 in10.0 miEast (100°)10.4 mphScattered Clouds
3:35 PM87.8 °F55.4 °F33 %30.07 in10.0 miEast (100°)9.2 mph16.1 mphClear
3:55 PM87.8 °F57.2 °F35 %30.07 in10.0 miEast (80°)9.2 mphScattered Clouds
4:35 PM86.0 °F55.4 °F35 %30.06 in10.0 miEast (80°)6.9 mphScattered Clouds
4:55 PM87.8 °F57.2 °F35 %30.06 in10.0 miNE (50°)8.1 mph16.1 mphScattered Clouds
5:15 PM87.8 °F55.4 °F33 %30.06 in10.0 miEast (90°)8.1 mphScattered Clouds
5:35 PM87.8 °F57.2 °F35 %30.06 in10.0 miEast (80°)10.4 mphClear
5:55 PM86.0 °F57.2 °F37 %30.06 in10.0 miENE (70°)6.9 mphScattered Clouds
6:15 PM86.0 °F57.2 °F37 %30.06 in10.0 miEast (90°)8.1 mphMostly Cloudy
6:35 PM84.2 °F59.0 °F42 %30.07 in10.0 miENE (70°)8.1 mphMostly Cloudy
6:55 PM84.2 °F60.8 °F45 %30.07 in10.0 miENE (70°)10.4 mph17.3 mphMostly Cloudy
7:15 PM82.4 °F60.8 °F48 %30.07 in10.0 miENE (60°)10.4 mphMostly Cloudy
7:35 PM80.6 °F62.6 °F54 %30.07 in10.0 miENE (60°)6.9 mphScattered Clouds
7:55 PM80.6 °F62.6 °F54 %30.07 in10.0 miEast (80°)8.1 mphClear
8:15 PM78.8 °F64.4 °F61 %30.07 in10.0 miENE (60°)10.4 mphClear
8:35 PM78.8 °F64.4 °F61 %30.08 in10.0 miEast (80°)9.2 mphClear
8:55 PM78.8 °F64.4 °F61 %30.09 in10.0 miEast (80°)6.9 mph16.1 mphScattered Clouds
9:15 PM78.8 °F62.6 °F57 %30.09 in10.0 miEast (80°)8.1 mphScattered Clouds
9:35 PM77.0 °F62.6 °F61 %30.10 in10.0 miEast (90°)8.1 mphClear
9:55 PM77.0 °F62.6 °F61 %30.11 in10.0 miEast (90°)6.9 mphScattered Clouds
10:15 PM77.0 °F62.6 °F61 %30.12 in10.0 miEast (80°)6.9 mphScattered Clouds
10:55 PM75.2 °F62.6 °F65 %30.11 in10.0 miEast (90°)9.2 mphClear
11:15 PM75.2 °F64.4 °F69 %30.10 in10.0 miEast (90°)5.8 mphClear
11:35 PM75.2 °F64.4 °F69 %30.09 in10.0 miEast (90°)5.8 mphClear
11:55 PM73.4 °F64.4 °F73 %30.09 in10.0 miEast (90°)10.4 mphClear
Hourly data recorded from KPCM, located miles away from San Martiniano, Quintana Roo







STORIES FROM OUR PARTNERS